Weather in Mingrelskaya

Russia / Krasnodar Krai     45˚00′52″N   38˚20′23″E
temp.,
°C
wind,
m/s
gust,
m/s
humid.,
%
clouds,
%
prec.,
mm/h
press.,
hPa
HPBL,
m
17 january, sun
sun1700:00−2˚ene5989100 0.1 1013428
03:00−2˚ene61294100 1.0 1010619
06:00−3˚ene81496100 1.8 1005661
09:00−4˚ne91596100 9.1 1002707
12:00−2˚ne81397100 9.9 1002588
15:00ne71297100 12.8 1000523
18:00ne61195100 0.5 1002379
21:00−1˚nw5799100 2.2 1003251
18 january, mon
mon1800:00−5˚nw61095100 1.6 1006419
03:00−7˚wnw3596100 1.8 100993
06:00−5˚w379796 0.2 1012217
09:00−5˚wsw349597 0.2 1014114
12:00−2˚w3594100 0.1 1016444
15:00−1˚nw2390100 0.3 1016491
18:00−4˚w3394100 0.1 101872
21:00−7˚wsw2389100 0.1 101822
19 january, tue
tue1900:00−8˚s228571 0.0 101921
03:00−7˚se019483 1.3 101921
06:00−9˚sw349285 1.1 101934
09:00−8˚sw348892 1.1 102075
12:00−4˚w3583100 0.0 1021519
15:00−4˚w468692 0.1 1020601
18:00−8˚w239199 0.0 102227
21:00−10˚wsw238966 0.0 102321
20 january, wed
wed2000:00−11˚sw228965 0.0 102321
03:00−12˚ssw128967 0.0 102421
06:00−11˚ssw228750 0.0 102421
09:00−10˚sw128872 0.0 102521
12:00−5˚sw128254 0.0 1025170
15:00−3˚wsw138573 0.0 1025374
18:00−6˚se118298 0.0 102621
21:00−7˚ese238396 0.0 102721
21 january, thu
thu2100:00−6˚ese348599 0.0 102767
03:00−5˚e239694 0.4 102769
06:00−2˚ene229798 0.3 102747
09:00−1˚ene229798 0.3 102976
12:00e2310057 0.0 1029100
15:00+2˚s1210070 0.6 102822
18:00+2˚ssw3396100 0.6 102965
21:00+2˚s368399 0.6 1029135